Weather History for Vitoria, Spain

Change the Weather History Date:

Thursday, April 11, 2013

  Actual Average Record
Temperature  
Mean Temperature 55 °F -  
Max Temperature 60 °F 63 °F 75 °F (1997)
Min Temperature 50 °F 40 °F 28 °F (1998)
Degree Days  
Heating Degree Days 10    
Growing Degree Days 5 (Base 50)    
Moisture  
Dew Point 46 °F    
Average Humidity 72    
Maximum Humidity 88    
Minimum Humidity 55    
Precipitation  
Precipitation 0.00 in - - ()
Sea Level Pressure  
Sea Level Pressure 29.84 in    
Wind  
Wind Speed 17 mph ()    
Max Wind Speed 29 mph    
Max Gust Speed 43 mph    
Visibility 6.1 miles    
Events Rain    
Averages and records for this station are not official NWS values.
T = Trace of Precipitation, MM = Missing Value Source: Averaged Metar Reports

Daily Weather History Graph

Daily Weather History Graph

Search for Another Location

Airport:

Trip Planner

Search our weather history database for the weather conditions in past years. The results will help you decide how hot, cold, wet, or windy it might be!

Date:

Astronomy

Apr. 11, 2013 Rise Set
Actual Time 7:35 AM CEST 8:48 PM CEST
Civil Twilight 7:06 AM CEST 9:17 PM CEST
Nautical Twilight 6:31 AM CEST 9:53 PM CEST
Astronomical Twilight 5:55 AM CEST 10:29 PM CEST
Moon 7:56 AM CEST (4/11) 10:11 PM CEST (4/11)
Length of Visible Light 14h 11m
Length of Day
13h 12m
New Moon, 1% of the Moon is Illuminated
Apr 11
New Moon
Apr 18
First Quarter
Apr 25
Full
May 2
Last Quarter
May 10
New

Hourly Weather History & Observations

Time (CEST) Temp. Dew Point Humidity Pressure Visibility Wind Dir Wind Speed Gust Speed Precip Events Conditions
12:00 AM 59.0 °F 48.2 °F 67% 29.92 in - WSW 21.9 mph 33.4 mph N/A   Clear
12:30 AM 59.0 °F 48.2 °F 67% 29.89 in 6.2 mi SW 27.6 mph 40.3 mph N/A   Partly Cloudy
1:00 AM 59.0 °F 50.0 °F 72% 29.89 in - SW 28.8 mph 42.6 mph N/A   Clear
1:30 AM 59.0 °F 50.0 °F 72% 29.89 in 6.2 mi SW 26.5 mph 38.0 mph N/A   Partly Cloudy
2:00 AM 59.0 °F 50.0 °F 72% 29.89 in 6.2 mi SW 20.7 mph 32.2 mph N/A   Partly Cloudy
2:30 AM 59.0 °F 48.2 °F 67% 29.89 in 6.2 mi SW 23.0 mph - N/A   Partly Cloudy
3:00 AM 57.2 °F 48.2 °F 72% 29.89 in 6.2 mi SW 19.6 mph - N/A   Scattered Clouds
3:30 AM 57.2 °F 48.2 °F 72% 29.86 in 6.2 mi SSW 18.4 mph - N/A   Scattered Clouds
4:00 AM 57.2 °F 48.2 °F 72% 29.86 in 6.2 mi SW 24.2 mph - N/A   Partly Cloudy
4:30 AM 57.2 °F 48.2 °F 72% 29.83 in 6.2 mi SW 24.2 mph - N/A   Partly Cloudy
5:00 AM 57.2 °F 48.2 °F 72% 29.83 in - SW 23.0 mph 35.7 mph N/A   Clear
5:30 AM 57.2 °F 48.2 °F 72% 29.83 in 6.2 mi SW 18.4 mph 32.2 mph N/A   Scattered Clouds
6:00 AM 57.2 °F 48.2 °F 72% 29.83 in 6.2 mi SW 13.8 mph 25.3 mph N/A   Mostly Cloudy
6:30 AM 57.2 °F 48.2 °F 72% 29.83 in 6.2 mi SW 17.3 mph 29.9 mph N/A   Mostly Cloudy
7:00 AM 55.4 °F 46.4 °F 72% 29.83 in 6.2 mi SW 16.1 mph - N/A   Scattered Clouds
7:30 AM 55.4 °F 46.4 °F 72% 29.83 in 6.2 mi SW 13.8 mph - N/A   Mostly Cloudy
8:00 AM 55.4 °F 46.4 °F 72% 29.83 in 6.2 mi SW 12.7 mph - N/A   Mostly Cloudy
8:30 AM 53.6 °F 48.2 °F 82% 29.83 in 6.2 mi WSW 16.1 mph - N/A   Mostly Cloudy
9:00 AM 53.6 °F 46.4 °F 77% 29.83 in 6.2 mi WSW 2.3 mph - N/A   Mostly Cloudy
9:30 AM 55.4 °F 44.6 °F 67% 29.83 in 6.2 mi SW 13.8 mph 26.5 mph N/A   Scattered Clouds
10:00 AM 55.4 °F 44.6 °F 67% 29.80 in 6.2 mi SW 17.3 mph 33.4 mph N/A   Scattered Clouds
10:30 AM 57.2 °F 42.8 °F 59% 29.83 in 6.2 mi WSW 13.8 mph 27.6 mph N/A   Scattered Clouds
11:00 AM 57.2 °F 42.8 °F 59% 29.80 in 6.2 mi WSW 13.8 mph 28.8 mph N/A   Scattered Clouds
11:30 AM 57.2 °F 42.8 °F 59% 29.80 in 6.2 mi WSW 18.4 mph 35.7 mph N/A   Scattered Clouds
12:00 PM 60.8 °F 44.6 °F 55% 29.80 in 6.2 mi WSW 23.0 mph 35.7 mph N/A   Scattered Clouds
12:30 PM 60.8 °F 48.2 °F 63% 29.80 in 6.2 mi SW 24.2 mph 35.7 mph N/A   Mostly Cloudy
1:00 PM 59.0 °F 44.6 °F 59% 29.80 in 6.2 mi WSW 21.9 mph - N/A   Mostly Cloudy
1:30 PM 59.0 °F 44.6 °F 59% 29.80 in 6.2 mi WSW 21.9 mph - N/A   Mostly Cloudy
2:00 PM 57.2 °F 46.4 °F 67% 29.80 in 6.2 mi West 17.3 mph - N/A   Mostly Cloudy
2:30 PM 53.6 °F 48.2 °F 82% 29.80 in 6.2 mi WSW 20.7 mph - N/A Rain Rain Showers
3:00 PM 53.6 °F 46.4 °F 77% 29.80 in 5.6 mi WSW 20.7 mph 32.2 mph N/A Rain Light Rain
3:30 PM 51.8 °F 46.4 °F 82% 29.83 in 5.6 mi WSW 25.3 mph 36.8 mph N/A Rain Light Rain
4:00 PM 50.0 °F 44.6 °F 82% 29.83 in 5.6 mi WSW 25.3 mph 41.4 mph N/A Rain Light Rain
4:30 PM 51.8 °F 44.6 °F 76% 29.83 in 5.6 mi SW 19.6 mph 34.5 mph N/A Rain Light Rain
5:00 PM 51.8 °F 48.2 °F 88% 29.83 in 6.2 mi SW 17.3 mph - N/A Rain Light Rain
5:30 PM 53.6 °F 44.6 °F 72% 29.80 in 6.2 mi SW 11.5 mph - N/A   Mostly Cloudy
6:00 PM 51.8 °F 44.6 °F 76% 29.80 in 6.2 mi SSW 16.1 mph 27.6 mph N/A   Mostly Cloudy
6:30 PM 55.4 °F 44.6 °F 67% 29.83 in 6.2 mi WSW 13.8 mph - N/A   Mostly Cloudy
7:00 PM 53.6 °F 46.4 °F 77% 29.83 in 6.2 mi SW 9.2 mph - N/A   Scattered Clouds
7:30 PM 53.6 °F 46.4 °F 77% 29.83 in 6.2 mi SW 5.8 mph - N/A   Scattered Clouds
8:00 PM 55.4 °F 44.6 °F 67% 29.83 in 6.2 mi SW 9.2 mph - N/A   Scattered Clouds
8:30 PM 53.6 °F 44.6 °F 72% 29.83 in 6.2 mi SW 8.1 mph - N/A   Scattered Clouds
9:00 PM 51.8 °F 44.6 °F 76% 29.86 in 6.2 mi WSW 3.5 mph - N/A   Scattered Clouds
9:30 PM 51.8 °F 44.6 °F 76% 29.86 in 6.2 mi West 3.5 mph - N/A   Scattered Clouds
10:00 PM 50.0 °F 44.6 °F 82% 29.86 in 6.2 mi Calm Calm - N/A   Scattered Clouds
10:30 PM 50.0 °F 42.8 °F 76% 29.86 in 6.2 mi SW 3.5 mph - N/A   Scattered Clouds
11:00 PM 50.0 °F 44.6 °F 82% 29.89 in 6.2 mi Calm Calm - N/A   Scattered Clouds
11:30 PM 51.8 °F 44.6 °F 76% 29.89 in 6.2 mi WSW 5.8 mph - N/A   Scattered Clouds